Location: Central Falls
(41.8900°N, 71.3929°W)
Time: 03:34:28
(UTC+00:00)

Vanguard 2 - Pass Details

Date: 06 December 2023
Orbit: 554 x 2918 km, 32.9° (Epoch: 01 March)

Event Time Altitude Azimuth Distance (km) Brightness Sun altitude
Rises 23:38:42 0° 211° (SSW) 6,521 12.8 -26.1°
Reaches altitude 10° 23:43:39 10° 202° (SSW) 5,657 12.2 -27.0°
Maximum altitude 23:57:58 32° 148° (SSE) 4,104 10.9 -29.7°
Enters shadow 00:01:41 30° 128° (SE) 4,138 10.8 -30.3°
Drops below altitude 10° 00:10:47 10° 93° (E) 5,095 - -32.0°
Sets 00:14:53 0° 84° (E) 5,818 - -32.8°
